Weather History for Worland, WY

Change the Weather History Date:

Sunday, March 3, 2013

  Actual Average Record
Temperature  
Mean Temperature 40 °F 31 °F  
Max Temperature 50 °F 45 °F 65 °F (1992)
Min Temperature 29 °F 17 °F -15 °F (1989)
Degree Days  
Heating Degree Days 25 34  
Month to date heating degree days 92 103  
Since 1 July heating degree days 5674 6104  
Cooling Degree Days 0 0  
Month to date cooling degree days 0 0  
Year to date cooling degree days 0 0  
Moisture  
Dew Point 29 °F    
Average Humidity 73    
Maximum Humidity 92    
Minimum Humidity 54    
Precipitation  
Precipitation 0.00 in 0.01 in 0.15 in (1989)
Month to date precipitation 0.00 0.03  
Year to date precipitation 0.39 0.45  
Sea Level Pressure  
Sea Level Pressure 29.75 in    
Wind  
Wind Speed 7 mph (NNE)    
Max Wind Speed 37 mph    
Max Gust Speed 47 mph    
Visibility 10 miles    
Events      
T = Trace of Precipitation, MM = Missing Value Source: NWS Daily Summary

Daily Weather History Graph

Daily Weather History Graph

Search for Another Location

Airport:

Trip Planner

Search our weather history database for the weather conditions in past years. The results will help you decide how hot, cold, wet, or windy it might be!

Date:

Astronomy

Mar. 03, 2013 Rise Set
Actual Time 6:44 AM MST 6:03 PM MST
Civil Twilight 6:15 AM MST 6:32 PM MST
Nautical Twilight 5:42 AM MST 7:05 PM MST
Astronomical Twilight 5:09 AM MST 7:39 PM MST
Moon No Moon Rise 9:48 AM MST (3/3)
Length of Visible Light 12h 16m
Length of Day
11h 18m
Waning Gibbous, 63% of the Moon is Illuminated
Mar 3
Waning Gibbous
Mar 4
Last Quarter
Mar 11
New
Mar 19
First Quarter
Mar 27
Full

Hourly Weather History & Observations

Time (MST) Temp. Windchill Dew Point Humidity Pressure Visibility Wind Dir Wind Speed Gust Speed Precip Events Conditions
12:53 AM 32.0 °F - 30.0 °F 92% 29.91 in 10.0 mi Calm Calm - N/A   Clear
1:53 AM 33.1 °F - 30.0 °F 89% 29.91 in 10.0 mi Calm Calm - N/A   Clear
2:53 AM 30.0 °F - 28.0 °F 92% 29.87 in 10.0 mi Calm Calm - N/A   Clear
3:53 AM 32.0 °F 27.5 °F 28.9 °F 88% 29.86 in 10.0 mi SE 4.6 mph - N/A   Clear
4:53 AM 33.1 °F 26.1 °F 30.0 °F 89% 29.83 in 10.0 mi South 8.1 mph - N/A   Clear
5:53 AM 33.1 °F - 30.0 °F 89% 29.82 in 10.0 mi Calm Calm - N/A   Partly Cloudy
6:53 AM 28.9 °F 22.8 °F 27.0 °F 92% 29.82 in 10.0 mi West 5.8 mph - N/A   Mostly Cloudy
7:53 AM 30.9 °F - 28.9 °F 92% 29.81 in 10.0 mi Calm Calm - N/A   Partly Cloudy
8:53 AM 35.1 °F - 30.9 °F 85% 29.76 in 10.0 mi Calm Calm - N/A   Overcast
9:53 AM 36.0 °F 31.1 °F 32.0 °F 86% 29.75 in 10.0 mi SW 5.8 mph - N/A   Partly Cloudy
10:53 AM 39.9 °F 35.1 °F 30.9 °F 70% 29.70 in 10.0 mi WSW 6.9 mph - N/A   Clear
11:53 AM 45.0 °F - 32.0 °F 60% 29.67 in 10.0 mi Calm Calm - N/A   Clear
12:53 PM 48.9 °F - 32.0 °F 52% 29.60 in 10.0 mi NE 3.5 mph - N/A   Scattered Clouds
1:53 PM 46.0 °F 43.1 °F 34.0 °F 63% 29.58 in 10.0 mi NE 5.8 mph - N/A   Scattered Clouds
2:53 PM 48.9 °F - 34.0 °F 56% 29.55 in 10.0 mi East 6.9 mph - N/A   Mostly Cloudy
3:53 PM 48.9 °F - 32.0 °F 52% 29.54 in 10.0 mi ENE 8.1 mph - N/A   Partly Cloudy
4:53 PM 48.0 °F - 33.1 °F 56% 29.53 in 10.0 mi ESE 6.9 mph - N/A   Clear
5:53 PM 46.0 °F 43.1 °F 33.1 °F 61% 29.56 in 10.0 mi NW 5.8 mph - N/A   Partly Cloudy
6:53 PM 34.0 °F 25.5 °F 26.1 °F 73% 29.71 in 10.0 mi North 11.5 mph 19.6 mph N/A   Clear
8:53 PM 30.0 °F 14.0 °F 21.9 °F 72% 29.82 in 10.0 mi NNW 34.5 mph 47.2 mph N/A   Scattered Clouds
9:53 PM 30.9 °F 21.7 °F 21.9 °F 69% 29.86 in 10.0 mi NNW 11.5 mph - N/A   Overcast
10:53 PM 32.0 °F 27.5 °F 18.0 °F 56% 29.89 in 10.0 mi Variable 4.6 mph - N/A   Overcast
11:53 PM 30.9 °F - 19.0 °F 61% 29.88 in 10.0 mi Calm Calm - N/A   Overcast